User: anonymous   Login
Location: Columbia
(38.9520°N, 92.3340°W)
Time: 08:11:43
(UTC-05:00)
Language:

Iridium 52 - Orbit

View from above orbital plane
View from above orbital plane
View from above satellite
View from above satellite

Ground track
Ground track

The orbit data is extracted from the following two-line orbital elements,

1 25169U 98010A   15090.18802676  .00000522  00000-0  17934-3 0  9990
2 25169 086.3978 328.5296 0002039 084.3700 027.9172 14.34218602895828
Epoch (UTC): 31 March 2015 04:30:45
Eccentricity: 0.0002039
inclination: 86.3978°
perigee height: 776 km
apogee height: 779 km
right ascension of ascending node: 328.5296°
argument of perigee: 84.3700°
revolutions per day: 14.34218602
mean anomaly at epoch: 27.9172°
orbit number at epoch: 89582

The dashed part of the orbit path shows where the satellite is in the earth's shadow,  

DLR